[[{"header":{"parameterUnit":"m.s-1","parameterCategory":1,"la1":30.2991,"la2":30.254,"lo1":-89.0895,"lo2":-89.0444,"dy":0.0017,"dx":0.0017,"nx":28,"ny":28,"refTime":"2024-04-25T03:00:00:Z","depth":0,"parameterNumber":2,"parameterNumberName":"U-component_of_WINDS"},"data":[0,0,0,0,0,0,0,0,0,0,0,0,0,0,0,0,0,0,0,0,0,0,0,0,0,0,0,0,0,0,0,0,0,0,0,0,0,0,0,0,0,0,0,0,0,0,0,0,0,0,0,0,0,0,0,0,0,0,-0.4306,-0.4306,0,-0.4309,-0.4309,-0.4309,-0.4277,-0.4276,-0.4276,-0.4275,-0.4278,-0.4279,-0.428,0,0,0,0,0,0,0,0,0,0,0,0,0,-0.4275,-0.4276,-0.4306,-0.4306,-0.4306,-0.4309,-0.4309,-0.4309,-0.4277,-0.4276,-0.4275,-0.4274,-0.4278,-0.4279,-0.428,0,0,0,0,0,0,0,0,0,0,0,0,0,-0.4284,-0.4276,-0.4306,-0.4291,-0.429,-0.4309,-0.4309,-0.4309,-0.4278,-0.4276,-0.4275,-0.4274,-0.4277,-0.4279,-0.428,-0.4314,0,0,-0.4284,-0.4284,0,0,0,0,0,0,0,0,-0.4284,-0.4285,-0.4293,-0.4292,-0.429,-0.4291,-0.4299,-0.4311,-0.4278,-0.4282,-0.4275,-0.4273,-0.4283,-0.4284,-0.4288,-0.4314,-0.4314,-0.4284,-0.4285,-0.4285,-0.4286,0,0,0,0,0,0,0,-0.4283,-0.4285,-0.4307,-0.4293,-0.4292,-0.4284,-0.4284,-0.4301,-0.429,-0.4282,-0.4279,-0.428,-0.4282,-0.4286,-0.4287,-0.4314,-0.4284,-0.4285,-0.4286,-0.4287,-0.4369,-0.4371,0,0,0,0,0,0,-0.4284,-0.4285,-0.4307,-0.4307,-0.4284,-0.4286,-0.4286,-0.4292,-0.429,-0.4288,-0.4281,-0.4279,-0.4285,-0.4286,-0.4287,-0.4327,-0.4285,-0.4287,-0.4287,-0.4368,-0.437,-0.4371,0,0,0,0,0,0,-0.4284,-0.4287,-0.4307,-0.4295,-0.4297,-0.4288,-0.4296,-0.4293,-0.4297,-0.4289,-0.4287,-0.4287,-0.4284,-0.4285,-0.4308,-0.4327,-0.4287,-0.4288,-0.4366,-0.4369,-0.4371,-0.4407,0,0,0,0,0,0,-0.4283,-0.4287,-0.4299,-0.4296,-0.4298,-0.4327,-0.4297,-0.4294,-0.4299,-0.4296,-0.4294,-0.4293,-0.4283,-0.4306,-0.4309,-0.4328,-0.429,-0.4365,-0.4367,-0.437,-0.4404,-0.441,-0.4416,0,0,0,0,0,-0.4282,-0.431,-0.43,-0.4303,-0.4314,-0.4328,-0.4329,-0.4317,-0.4301,-0.4314,-0.4309,-0.4293,-0.4324,-0.4308,-0.4312,-0.4331,-0.4363,-0.4367,-0.437,-0.4402,-0.4409,-0.4415,0,0,0,0,0,0,-0.4315,-0.4309,-0.4298,-0.4325,-0.4328,-0.4323,-0.4338,-0.4325,-0.4332,-0.4329,-0.4314,-0.4314,-0.4338,-0.4337,-0.4319,-0.4364,-0.4341,-0.4345,-0.4364,-0.4371,-0.4377,-0.4376,-0.4291,0,0,0,0,0,-0.4326,-0.4338,-0.4332,-0.4356,-0.4358,-0.4348,-0.4354,-0.4344,-0.4346,-0.4347,-0.4344,-0.4346,-0.4357,-0.4364,-0.4373,-0.4404,-0.4403,-0.4419,-0.4425,-0.443,-0.4433,-0.445,-0.4457,-0.4382,-0.4382,-0.4382,0,0,-0.4348,-0.4345,-0.4354,-0.4363,-0.4363,-0.4377,-0.4349,-0.4364,-0.4374,-0.4349,-0.437,-0.4368,-0.437,-0.4397,-0.4408,-0.4396,-0.4454,-0.4434,-0.4438,-0.4438,-0.4454,-0.4461,-0.4467,-0.4384,-0.4383,-0.4383,0,0,-0.4394,-0.4393,-0.4414,-0.4415,-0.4417,-0.441,-0.4415,-0.4413,-0.441,-0.4431,-0.4413,-0.4425,-0.4443,-0.4445,-0.4448,-0.4497,-0.4482,-0.45,-0.4529,-0.4546,-0.4552,-0.4557,-0.4574,-0.4581,-0.4504,-0.4504,-0.4504,0,-0.442,-0.4439,-0.4426,-0.4442,-0.4447,-0.4426,-0.4447,-0.4449,-0.4453,-0.4457,-0.4443,-0.4466,-0.4466,-0.4493,-0.4505,-0.4509,-0.4514,-0.45,-0.4552,-0.4557,-0.4562,-0.4578,-0.4584,-0.4506,-0.4506,-0.4506,-0.4505,0,-0.4472,-0.4486,-0.4502,-0.4507,-0.4514,-0.4532,-0.4522,-0.453,-0.4521,-0.4516,-0.4537,-0.4536,-0.4545,-0.4551,-0.4542,-0.4577,-0.457,-0.4555,-0.4531,-0.4571,-0.4586,-0.4592,-0.4509,-0.4508,-0.4508,-0.4507,0,0,-0.4539,-0.4536,-0.4543,-0.4545,-0.4545,-0.4556,-0.4574,-0.4582,-0.459,-0.4594,-0.4609,-0.4625,-0.4611,-0.4615,-0.4606,-0.462,-0.4659,-0.4603,-0.4603,-0.4614,-0.4698,-0.471,-0.4717,-0.465,-0.4651,-0.4652,-0.4698,0,-0.4583,-0.4614,-0.4603,-0.4634,-0.4646,-0.4627,-0.4642,-0.4645,-0.4641,-0.4651,-0.4647,-0.4659,-0.464,-0.4642,-0.4655,-0.4651,-0.4676,-0.4648,-0.4663,-0.4664,-0.4663,-0.4725,-0.4737,-0.478,-0.4704,-0.4705,-0.4706,0,-0.4639,-0.4646,-0.4678,-0.4677,-0.4682,-0.4696,-0.4704,-0.4714,-0.4716,-0.4713,-0.4718,-0.4706,-0.4724,-0.47,-0.4725,-0.4706,-0.4712,-0.4711,-0.4713,-0.4713,-0.4687,-0.4727,-0.4794,-0.4801,-0.4715,-0.4714,-0.4713,0,-0.4684,-0.4701,-0.4723,-0.4726,-0.4725,-0.4735,-0.4736,-0.4737,-0.4743,-0.475,-0.4754,-0.4762,-0.4767,-0.4774,-0.4765,-0.4749,-0.4791,-0.4767,-0.4789,-0.4789,-0.4798,-0.4797,-0.4867,-0.4802,-0.4802,-0.4802,-0.4802,0,-0.4735,-0.4756,-0.4743,-0.4757,-0.4779,-0.4767,-0.479,-0.4788,-0.4789,-0.4802,-0.4786,-0.4799,-0.4786,-0.4797,-0.479,-0.4812,-0.4814,-0.4812,-0.4809,-0.4813,-0.4813,-0.4816,-0.4813,-0.4804,-0.4804,-0.4803,-0.4803,0,-0.4789,-0.4781,-0.4804,-0.4802,-0.4802,-0.4818,-0.4817,-0.4829,-0.4824,-0.4841,-0.4844,-0.4837,-0.485,-0.4841,-0.4854,-0.4849,-0.4878,-0.4871,-0.4877,-0.4875,-0.4897,-0.4895,-0.497,-0.498,-0.491,-0.491,-0.4911,0,-0.4822,-0.4837,-0.4837,-0.4844,-0.4846,-0.4858,-0.4864,-0.4853,-0.486,-0.4865,-0.4877,-0.4888,-0.4897,-0.4918,-0.4914,-0.4924,-0.4917,-0.4943,-0.4919,-0.4922,-0.4918,-0.4917,-0.4918,-0.4948,-0.4949,-0.4949,-0.495,0,-0.4881,-0.4877,-0.4886,-0.4895,-0.4903,-0.4909,-0.4914,-0.4921,-0.491,-0.4919,-0.4932,-0.4939,-0.4952,-0.4964,-0.4972,-0.4972,-0.496,-0.4958,-0.4963,-0.4967,-0.4969,-0.4968,-0.489,-0.4956,-0.4955,-0.4955,-0.4955,-0.4954,-0.4925,-0.4938,-0.494,-0.4951,-0.4954,-0.4959,-0.4971,-0.4968,-0.4979,-0.4988,-0.4981,-0.4997,-0.5,-0.501,-0.5012,-0.5024,-0.5013,-0.5021,-0.5023,-0.5025,-0.5029,-0.4968,-0.5025,-0.5025,-0.5025,-0.5025,-0.5025,0,-0.4983,-0.4983,-0.4994,-0.5002,-0.5011,-0.4999,-0.5004,-0.5012,-0.5026,-0.503,-0.5039,-0.5054,-0.5065,-0.5062,-0.5073,-0.5083,-0.5077,-0.5086,-0.5085,-0.5085,-0.5037,-0.5031,-0.509,-0.509,-0.509,-0.509,-0.509,-0.509,-0.5014,-0.5035,-0.5031,-0.5054,-0.5055,-0.507,-0.5074,-0.5079,-0.5082,-0.5099,-0.5109,-0.5107,-0.5108,-0.5119,-0.5129,-0.5128,-0.5132,-0.5143,-0.514,-0.5095,-0.5089,-0.5082,-0.5077,-0.5144,-0.5145,-0.5187,-0.5187,-0.5188]},{"header":{"parameterUnit":"m.s-1","parameterCategory":1,"la1":30.2991,"la2":30.254,"lo1":-89.0895,"lo2":-89.0444,"dy":0.0017,"dx":0.0017,"nx":28,"ny":28,"refTime":"2024-04-25T03:00:00:Z","depth":0,"parameterNumber":3,"parameterNumberName":"V-component_of_WINDS"},"data":[0,0,0,0,0,0,0,0,0,0,0,0,0,0,0,0,0,0,0,0,0,0,0,0,0,0,0,0,0,0,0,0,0,0,0,0,0,0,0,0,0,0,0,0,0,0,0,0,0,0,0,0,0,0,0,0,0,0,-0.5156,-0.5156,0,-0.5146,-0.5146,-0.5146,-0.5133,-0.5133,-0.5133,-0.5133,-0.5122,-0.5122,-0.5122,0,0,0,0,0,0,0,0,0,0,0,0,0,-0.5164,-0.5164,-0.5156,-0.5156,-0.5156,-0.5146,-0.5146,-0.5146,-0.5133,-0.5133,-0.5133,-0.5133,-0.5122,-0.5122,-0.5122,0,0,0,0,0,0,0,0,0,0,0,0,0,-0.5158,-0.5164,-0.5156,-0.5148,-0.5148,-0.5146,-0.5146,-0.5146,-0.5133,-0.5133,-0.5133,-0.5133,-0.5122,-0.5122,-0.5122,-0.5127,0,0,-0.5122,-0.5122,0,0,0,0,0,0,0,0,-0.5158,-0.5158,-0.515,-0.5149,-0.5148,-0.5141,-0.5145,-0.5139,-0.5134,-0.5139,-0.5133,-0.5132,-0.5129,-0.5128,-0.5127,-0.5126,-0.5126,-0.5122,-0.5122,-0.5121,-0.5121,0,0,0,0,0,0,0,-0.5159,-0.5158,-0.5152,-0.515,-0.5149,-0.5145,-0.5144,-0.5144,-0.5136,-0.5138,-0.5137,-0.5136,-0.5128,-0.5127,-0.5126,-0.5126,-0.5122,-0.5122,-0.5121,-0.5121,-0.5129,-0.5129,0,0,0,0,0,0,-0.516,-0.5159,-0.5152,-0.5152,-0.5153,-0.5146,-0.5144,-0.5143,-0.5135,-0.5134,-0.5137,-0.5136,-0.5127,-0.5127,-0.5126,-0.5131,-0.5121,-0.5121,-0.5121,-0.5129,-0.5129,-0.513,0,0,0,0,0,0,-0.5161,-0.516,-0.5153,-0.5155,-0.5154,-0.5146,-0.5145,-0.5143,-0.5142,-0.5134,-0.5133,-0.5137,-0.5127,-0.5126,-0.5127,-0.5131,-0.5121,-0.5121,-0.5129,-0.5129,-0.5129,-0.5142,0,0,0,0,0,0,-0.5161,-0.516,-0.5162,-0.5155,-0.5154,-0.5154,-0.5145,-0.5143,-0.5142,-0.5141,-0.5134,-0.5133,-0.5127,-0.5127,-0.5127,-0.513,-0.5121,-0.5128,-0.5129,-0.5129,-0.5141,-0.5143,-0.5144,0,0,0,0,0,-0.5161,-0.5166,-0.5162,-0.5162,-0.5156,-0.5154,-0.5153,-0.5147,-0.5142,-0.5144,-0.5139,-0.5133,-0.513,-0.5127,-0.5127,-0.513,-0.5128,-0.5129,-0.5129,-0.5141,-0.5143,-0.5144,0,0,0,0,0,0,-0.5174,-0.5165,-0.5161,-0.5163,-0.516,-0.5152,-0.5154,-0.5149,-0.5146,-0.5145,-0.5137,-0.5135,-0.5137,-0.5134,-0.5131,-0.5135,-0.5128,-0.5129,-0.5137,-0.5139,-0.514,-0.5141,-0.5121,0,0,0,0,0,-0.5177,-0.5176,-0.5168,-0.5171,-0.517,-0.5162,-0.5161,-0.5156,-0.5152,-0.5151,-0.5146,-0.5142,-0.514,-0.5139,-0.5137,-0.514,-0.5139,-0.5143,-0.5144,-0.5145,-0.5146,-0.5148,-0.5149,-0.5132,-0.5132,-0.5132,0,0,-0.5183,-0.5178,-0.5178,-0.5174,-0.517,-0.517,-0.5161,-0.5161,-0.5161,-0.5151,-0.5151,-0.5147,-0.5142,-0.5144,-0.5145,-0.5142,-0.5151,-0.5146,-0.5147,-0.5147,-0.5149,-0.515,-0.5152,-0.5132,-0.5132,-0.5132,0,0,-0.5194,-0.5191,-0.5193,-0.5189,-0.5184,-0.5179,-0.518,-0.5173,-0.517,-0.517,-0.5163,-0.5162,-0.5159,-0.5156,-0.5154,-0.5164,-0.5158,-0.5164,-0.5172,-0.5173,-0.5175,-0.5176,-0.518,-0.5181,-0.5164,-0.5164,-0.5164,0,-0.5203,-0.5202,-0.5194,-0.5195,-0.5193,-0.5184,-0.5186,-0.5183,-0.5178,-0.5177,-0.5173,-0.5169,-0.5165,-0.5166,-0.5169,-0.5167,-0.5168,-0.5165,-0.5175,-0.5176,-0.5177,-0.5181,-0.5182,-0.5165,-0.5165,-0.5165,-0.5165,0,-0.5213,-0.5212,-0.5215,-0.521,-0.5208,-0.5209,-0.5202,-0.5201,-0.5196,-0.5192,-0.5192,-0.5187,-0.5184,-0.5183,-0.5178,-0.5184,-0.5182,-0.5177,-0.517,-0.518,-0.5183,-0.5184,-0.5166,-0.5166,-0.5166,-0.5165,0,0,-0.5232,-0.5223,-0.5224,-0.5221,-0.5215,-0.5215,-0.5215,-0.5212,-0.5212,-0.5208,-0.5209,-0.5206,-0.5201,-0.5199,-0.5194,-0.5195,-0.5204,-0.519,-0.5189,-0.5193,-0.5209,-0.5214,-0.5215,-0.52,-0.52,-0.52,-0.521,0,-0.5243,-0.5244,-0.5237,-0.5239,-0.5239,-0.523,-0.5231,-0.5227,-0.5222,-0.5221,-0.5216,-0.5215,-0.5208,-0.5207,-0.5208,-0.5202,-0.5207,-0.5201,-0.52,-0.52,-0.5202,-0.5217,-0.5222,-0.5231,-0.5211,-0.5211,-0.5211,0,-0.5255,-0.5252,-0.5255,-0.5249,-0.5248,-0.5249,-0.5245,-0.5244,-0.524,-0.5236,-0.5234,-0.5227,-0.5228,-0.5221,-0.5221,-0.5217,-0.5216,-0.5214,-0.5214,-0.5214,-0.5207,-0.5218,-0.5234,-0.5236,-0.5213,-0.5213,-0.5213,0,-0.5269,-0.5266,-0.5268,-0.5266,-0.5258,-0.5259,-0.5256,-0.525,-0.5249,-0.5246,-0.5245,-0.5242,-0.524,-0.5238,-0.5231,-0.5227,-0.5232,-0.5225,-0.5229,-0.5229,-0.5231,-0.5231,-0.5248,-0.523,-0.523,-0.523,-0.523,0,-0.5282,-0.5284,-0.5274,-0.5275,-0.5277,-0.5269,-0.5271,-0.5267,-0.5262,-0.5262,-0.5254,-0.5254,-0.5244,-0.5243,-0.5238,-0.5239,-0.5238,-0.5235,-0.5234,-0.5236,-0.5237,-0.5236,-0.5235,-0.523,-0.523,-0.523,-0.523,0,-0.5299,-0.5292,-0.5293,-0.5285,-0.5283,-0.5285,-0.5279,-0.5279,-0.5274,-0.5274,-0.5273,-0.5265,-0.5263,-0.5256,-0.5252,-0.5249,-0.5252,-0.5249,-0.5253,-0.5253,-0.5258,-0.5257,-0.5275,-0.5277,-0.5257,-0.5257,-0.5257,0,-0.5308,-0.5309,-0.5302,-0.5301,-0.5298,-0.5297,-0.5296,-0.5287,-0.5286,-0.5281,-0.5282,-0.5279,-0.5277,-0.5274,-0.5268,-0.5265,-0.5262,-0.5269,-0.5262,-0.5264,-0.5263,-0.5263,-0.5263,-0.527,-0.5271,-0.5271,-0.5271,0,-0.5324,-0.5321,-0.5319,-0.5316,-0.5314,-0.5311,-0.5308,-0.5308,-0.5299,-0.5298,-0.5296,-0.5294,-0.529,-0.5288,-0.5284,-0.5281,-0.5274,-0.5273,-0.5274,-0.5277,-0.528,-0.5278,-0.5258,-0.5273,-0.5273,-0.5273,-0.5272,-0.5272,-0.5337,-0.5338,-0.5333,-0.5332,-0.5328,-0.5325,-0.5325,-0.532,-0.5318,-0.5315,-0.531,-0.5309,-0.5303,-0.5298,-0.5295,-0.5293,-0.529,-0.5291,-0.5292,-0.5292,-0.5294,-0.5279,-0.5293,-0.5292,-0.5292,-0.5292,-0.5292,0,-0.5354,-0.535,-0.5348,-0.5344,-0.5343,-0.5337,-0.5333,-0.5332,-0.5331,-0.5327,-0.5325,-0.5322,-0.532,-0.5313,-0.531,-0.5311,-0.5308,-0.531,-0.531,-0.531,-0.5297,-0.5296,-0.5313,-0.5313,-0.5313,-0.5313,-0.5313,-0.5313,-0.5362,-0.5364,-0.5359,-0.5359,-0.5355,-0.5354,-0.5352,-0.5349,-0.5346,-0.5344,-0.5342,-0.5337,-0.5332,-0.5329,-0.5326,-0.5324,-0.5324,-0.5327,-0.5324,-0.5312,-0.5311,-0.5309,-0.5308,-0.5327,-0.5327,-0.5337,-0.5338,-0.5338]}]]